NV115 YFLI-YMEN

Flight info

Callsign NV115
Flight time N/A
Altitude 20000
Route NUNPA W562 ONAGI H215 WAREN W495 MONTY
Aircraft C25B/M-SDE2E3FGHRWXY/LB1

Departure

Time 2026-05-05 09:43
Airport Flinders Island Airport (YFLI)

Arrival

Time N/A
Airport Melbourne Essendon Airport (YMEN)
Time Latitude Longitude Altitude Speed Heading
2026-05-05 09:40 -40.08354 147.98352 21 ft 0 kts 143°
2026-05-05 09:43 -40.08363 147.98360 20 ft 23 kts 144°
2026-05-05 09:43 -40.08943 147.98911 294 ft 154 kts 150°
2026-05-05 09:43 -40.09955 147.99893 1675 ft 209 kts 150°
2026-05-05 09:44 -40.11182 148.01177 3527 ft 232 kts 146°
2026-05-05 09:44 -40.12613 148.02212 5656 ft 234 kts 167°
2026-05-05 09:44 -40.14183 148.02397 7789 ft 231 kts 189°
2026-05-05 09:44 -40.15666 148.01568 9490 ft 240 kts 223°
2026-05-05 09:45 -40.16530 147.99727 11245 ft 247 kts 254°
2026-05-05 09:45 -40.16461 147.97475 13141 ft 256 kts 285°
2026-05-05 09:45 -40.15429 147.95553 15021 ft 268 kts 314°
2026-05-05 09:45 -40.13707 147.94556 16890 ft 280 kts 345°
2026-05-05 09:46 -40.11714 147.94620 18590 ft 294 kts
2026-05-05 09:46 -40.09651 147.95022 19844 ft 310 kts
2026-05-05 09:46 -40.07369 147.95523 20123 ft 358 kts
2026-05-05 09:46 -40.04750 147.96052 20137 ft 400 kts
2026-05-05 09:47 -40.01909 147.95685 20135 ft 423 kts 340°
2026-05-05 09:47 -39.99273 147.94005 20139 ft 415 kts 321°
2026-05-05 09:47 -39.97275 147.91456 20131 ft 405 kts 306°
2026-05-05 09:47 -39.95494 147.88620 20142 ft 405 kts 306°
2026-05-05 09:48 -39.93669 147.85744 20147 ft 420 kts 306°
2026-05-05 09:48 -39.91958 147.83011 20147 ft 431 kts 306°